Date String (YYYY-MM-DD hh:mm:ss) UTC,Instrument flags,Ambient pressure (hPa),Sample flow (lpm),Bypass flow (lpm),Sample temperature (°C),Ambient temperature (°C),ASC tube jacket temperature (°C),LED temperature (°C),Box temperature (°C),Sample RH (%),Span deviation,Mass concentration (μg/m³),Mass concentration (μg/m³),Mass concentration (μg/m³)
DateTimeUTC,F1_M11,P_M11,Q1_M11,Q2_M11,T1_M11,T2_M11,T3_M11,T4_M11,T5_M11,U1_M11,ZSPAN_M11,X0_M11,X2_M11,X1_M11
2023-03-03 06:00:00,,0814.3,5.00,0.00,22.5,22.8,00.0,31.1,24.5,13.4,0000.8,0013.60,0007.36,0006.82
2023-03-03 06:01:00,,0814.4,5.00,0.00,22.6,22.9,00.0,31.1,24.6,13.3,0000.9,0013.32,0007.35,0006.83
2023-03-03 06:02:00,,0814.5,5.01,0.00,22.6,22.5,00.0,31.2,24.5,13.3,0001.2,0012.83,0007.34,0006.83
2023-03-03 06:03:00,,0814.4,5.02,0.00,22.6,22.1,00.0,31.2,24.5,13.3,0001.9,0012.76,0007.32,0006.84
2023-03-03 06:04:00,,0814.3,5.00,0.00,22.6,21.9,00.0,31.2,24.4,13.3,0001.5,0012.75,0007.32,0006.85
2023-03-03 06:05:00,,0814.2,4.99,0.00,22.6,21.7,00.0,31.2,24.3,13.3,0001.1,0012.89,0007.37,0006.87
2023-03-03 06:06:00,,0814.3,5.01,0.00,22.6,21.5,00.0,31.2,24.3,13.3,0000.7,0013.44,0007.43,0006.91
2023-03-03 06:07:00,,0814.4,5.01,0.00,22.6,21.4,00.0,31.2,24.3,13.3,-000.0,0013.76,0007.47,0006.94
2023-03-03 06:08:00,,0814.4,5.01,0.00,22.6,21.3,00.0,31.2,24.4,13.3,-000.4,0013.19,0007.51,0006.99
2023-03-03 06:09:00,,0814.3,4.98,0.00,22.6,21.2,00.0,31.3,24.3,13.3,-000.5,0012.86,0007.55,0007.02
2023-03-03 06:10:00,,0814.4,5.00,0.00,22.6,21.1,00.0,31.3,24.3,13.3,-000.3,0012.92,0007.61,0007.05
2023-03-03 06:11:00,,0814.3,4.97,0.00,22.6,21.1,00.0,31.3,24.3,13.3,-000.1,0013.11,0007.63,0007.08
2023-03-03 06:12:00,,0814.5,5.03,0.00,22.5,21.0,00.0,31.3,24.3,13.3,-000.5,0013.27,0007.68,0007.11
2023-03-03 06:13:00,,0814.4,4.96,0.00,22.5,21.0,00.0,31.3,24.2,13.3,-001.0,0013.60,0007.78,0007.15
2023-03-03 06:14:00,,0814.5,5.00,0.00,22.5,21.0,00.0,31.3,24.2,13.4,-001.7,0013.87,0007.81,0007.15
2023-03-03 06:15:00,,0814.3,5.01,0.00,22.5,20.9,00.0,31.3,24.2,13.4,-001.7,0014.48,0007.80,0007.16
2023-03-03 06:16:00,,0814.3,5.00,0.00,22.5,20.9,00.0,31.2,24.2,13.4,-001.6,0014.49,0007.82,0007.18
2023-03-03 06:17:00,,0814.2,5.01,0.00,22.5,20.9,00.0,31.2,24.2,13.4,-001.5,0014.00,0007.79,0007.19
2023-03-03 06:18:00,,0814.2,5.00,0.00,22.5,20.9,00.0,31.2,24.2,13.4,-001.4,0013.82,0007.78,0007.18
2023-03-03 06:19:00,,0814.3,5.00,0.00,22.5,20.9,00.0,31.2,24.2,13.5,-001.4,0013.99,0007.79,0007.18
2023-03-03 06:20:00,,0814.3,5.00,0.00,22.5,20.9,00.0,31.2,24.2,13.5,-001.5,0014.19,0007.80,0007.17
2023-03-03 06:21:00,,0814.3,5.00,0.00,22.4,20.9,00.0,31.2,24.2,13.5,-001.9,0014.12,0007.77,0007.15
2023-03-03 06:22:00,,0814.3,4.99,0.00,22.4,20.8,00.0,31.2,24.1,13.6,-002.2,0013.99,0007.72,0007.13
2023-03-03 06:23:00,,0814.4,5.00,0.00,22.4,20.7,00.0,31.2,24.1,13.6,-001.9,0013.91,0007.70,0007.12
2023-03-03 06:24:00,,0814.4,5.00,0.00,22.4,20.8,00.0,31.2,24.1,13.6,-001.7,0013.94,0007.63,0007.09
2023-03-03 06:25:00,,0814.5,5.00,0.00,22.4,20.7,00.0,31.2,24.1,13.6,-001.5,0014.26,0007.63,0007.09
2023-03-03 06:26:00,,0814.4,5.00,0.00,22.4,20.7,00.0,31.2,24.1,13.6,-001.4,0014.02,0007.60,0007.07
2023-03-03 06:27:00,,0814.4,4.99,0.00,22.4,20.7,00.0,31.2,24.1,13.6,-001.5,0013.91,0007.57,0007.05
2023-03-03 06:28:00,,0814.3,5.00,0.00,22.3,20.7,00.0,31.2,24.1,13.6,-001.3,0013.99,0007.55,0007.03
2023-03-03 06:29:00,,0814.4,5.00,0.00,22.3,20.7,00.0,31.1,24.0,13.6,-001.1,0014.07,0007.56,0007.04
2023-03-03 06:30:00,,0814.4,4.99,0.00,22.3,20.6,00.0,31.1,24.0,13.6,-001.1,0014.08,0007.56,0007.03
2023-03-03 06:31:00,,0814.2,4.99,0.00,22.3,20.6,00.0,31.1,24.0,13.6,-000.8,0014.03,0007.54,0007.02
2023-03-03 06:32:00,,0814.3,5.02,0.00,22.3,21.2,00.0,31.1,24.1,13.6,-000.6,0014.12,0007.54,0007.01
2023-03-03 06:33:00,,0814.4,4.99,0.00,22.4,22.3,00.0,31.1,24.3,13.6,-000.5,0014.18,0007.59,0007.02
2023-03-03 06:34:00,,0814.5,5.00,0.00,22.5,22.9,00.0,31.1,24.5,13.5,-000.8,0014.36,0007.57,0007.00
2023-03-03 06:35:00,,0814.4,4.99,0.00,22.6,22.5,00.0,31.2,24.5,13.5,-001.4,0014.20,0007.56,0007.00
2023-03-03 06:36:00,,0814.4,5.01,0.00,22.6,22.1,00.0,31.2,24.4,13.5,-000.7,0013.78,0007.56,0007.02
2023-03-03 06:37:00,,0814.4,5.00,0.00,22.6,21.8,00.0,31.2,24.3,13.5,-000.9,0013.74,0007.58,0007.05
2023-03-03 06:38:00,,0814.4,5.00,0.00,22.6,21.6,00.0,31.2,24.3,13.5,-001.0,0014.27,0007.60,0007.07
2023-03-03 06:39:00,,0814.4,5.01,0.00,22.5,21.5,00.0,31.2,24.3,13.5,-001.4,0013.86,0007.58,0007.07
2023-03-03 06:40:00,,0814.3,4.97,0.00,22.5,21.3,00.0,31.2,24.3,13.5,-001.5,0013.59,0007.57,0007.05
2023-03-03 06:41:00,,0814.3,5.02,0.00,22.5,21.2,00.0,31.2,24.3,13.5,-001.2,0013.55,0007.56,0007.06
2023-03-03 06:42:00,,0814.3,5.03,0.00,22.5,21.1,00.0,31.2,24.2,13.5,-001.4,0013.49,0007.58,0007.07
2023-03-03 06:43:00,,0814.5,4.99,0.00,22.5,21.1,00.0,31.2,24.2,13.5,-001.2,0013.42,0007.57,0007.08
2023-03-03 06:44:00,,0814.4,5.01,0.00,22.5,21.0,00.0,31.2,24.2,13.5,-000.9,0013.33,0007.54,0007.08
2023-03-03 06:45:00,,0814.4,5.00,0.00,22.5,21.0,00.0,31.2,24.2,13.5,-000.6,0013.29,0007.52,0007.10
2023-03-03 06:46:00,,0814.4,5.00,0.00,22.5,20.9,00.0,31.2,24.2,13.5,-000.4,0013.71,0007.53,0007.12
2023-03-03 06:47:00,,0814.5,5.00,0.00,22.5,20.9,00.0,31.2,24.2,13.5,-000.6,0013.79,0007.55,0007.12
2023-03-03 06:48:00,,0814.3,5.00,0.00,22.4,20.9,00.0,31.2,24.1,13.6,-001.2,0013.77,0007.59,0007.13
2023-03-03 06:49:00,,0814.5,5.00,0.00,22.4,20.9,00.0,31.2,24.1,13.6,-001.1,0013.45,0007.62,0007.15
2023-03-03 06:50:00,,0814.4,5.01,0.00,22.4,20.8,00.0,31.2,24.1,13.6,-000.5,0014.50,0007.69,0007.18
2023-03-03 06:51:00,,0814.3,5.00,0.00,22.4,20.8,00.0,31.2,24.1,13.6,-000.5,0014.85,0007.73,0007.20
2023-03-03 06:52:00,,0814.4,5.00,0.00,22.4,20.8,00.0,31.2,24.1,13.6,-000.7,0014.87,0007.78,0007.24
2023-03-03 06:53:00,,0814.3,5.00,0.00,22.4,20.8,00.0,31.2,24.1,13.6,-000.9,0014.93,0007.83,0007.27
2023-03-03 06:54:00,,0814.1,5.02,0.00,22.4,20.8,00.0,31.2,24.1,13.6,-001.2,0015.79,0007.91,0007.32
2023-03-03 06:55:00,,0814.2,5.00,0.00,22.4,20.8,00.0,31.2,24.1,13.6,-001.1,0015.84,0008.00,0007.37
2023-03-03 06:56:00,,0814.2,5.00,0.00,22.4,20.8,00.0,31.2,24.1,13.7,-001.1,0015.71,0008.10,0007.40
2023-03-03 06:57:00,,0814.3,5.00,0.00,22.3,20.7,00.0,31.2,24.1,13.7,-000.9,0015.29,0008.15,0007.44
2023-03-03 06:58:00,,0814.1,5.00,0.00,22.3,20.7,00.0,31.1,24.1,13.7,-000.8,0015.81,0008.16,0007.46
2023-03-03 06:59:00,,0814.1,5.00,0.00,22.3,20.7,00.0,31.1,24.0,13.7,-000.4,0016.16,0008.20,0007.49
